Orbital Elements at Epoch 2459000.5 (2020-May-31.0) TDB
Reference: JPL 26 (heliocentric ecliptic J2000)
Element | Value | Uncertainty (1-sigma) | Units |
e | .119303844041034 | 4.5577e-08 | |
a | 2.569921797523621 | 1.2858e-08 | au |
q | 2.263320248194209 | 1.1967e-07 | au |
i | 10.38532474386279 | 5.6183e-06 | deg |
node | 340.1498884754398 | 1.89e-05 | deg |
peri | 306.3558356909599 | 2.7466e-05 | deg |
M | 170.728333007979 | 1.9234e-05 | deg |
tp | 2458286.856379260539 (2018-Jun-17.35637926) | 7.9401e-05 | TDB |
period | 1504.798289421587 4.12 | 1.1293e-05 3.092e-08 | d yr |
n | .2392347217103605 | 1.7954e-09 | deg/d |
Q | 2.876523346853033 | 1.4392e-08 | au |
|
| | Orbit Determination Parameters
Additional Information
|